Theta_e
291 291 292 292 293 294 294 295 296 297 296 296 297 297 296 296 296 293 286 292 286 276 277 281 282 277 276 277 272 274 274 273 269 273 271 270 269 271 269 272 269 270 270 272 268 270 269 283 284 280 284 289 289 289
291 291 291 292 293 293 294 295 297 297 295 296 297 297 296 296 296 296 285 292 292 283 279 284 285 286 285 283 279 280 277 276 278 271 271 272 265 273 272 267 276 270 275 273 276 275 282 285 284 287 290 289 289 288
290 290 291 291 292 293 294 295 296 295 295 295 295 297 296 296 296 294 288 288 286 282 280 278 279 283 288 287 288 276 278 283 281 284 276 272 265 276 271 272 273 276 279 275 275 280 282 286 286 289 291 291 290 290
289 290 290 291 292 293 294 295 296 295 295 295 295 296 296 296 295 295 288 290 287 281 274 272 284 281 286 288 287 288 285 286 285 284 280 277 275 279 274 276 276 278 279 276 278 281 283 285 286 288 288 289 289 290
289 289 290 290 291 293 293 296 295 295 295 295 296 296 297 296 296 294 290 290 288 281 272 269 280 283 286 287 286 288 286 284 282 281 279 275 281 280 280 280 278 281 279 277 276 284 284 285 287 288 287 287 289 288
288 289 290 290 291 292 295 294 294 294 295 295 295 295 297 297 297 288 282 288 290 287 276 265 273 273 282 285 285 285 286 285 284 280 279 280 280 279 270 270 279 283 284 286 283 286 286 288 288 288 288 287 286 287
288 289 289 290 291 292 295 294 294 294 294 295 295 296 296 296 290 282 279 284 292 287 272 265 265 273 279 281 280 278 282 283 278 276 273 279 279 280 273 269 279 281 283 283 285 286 284 284 285 287 285 285 281 281
287 288 288 289 290 292 294 293 293 294 294 294 295 296 296 295 293 285 289 294 291 282 274 264 264 269 280 279 277 281 279 277 274 270 270 272 276 271 267 277 279 280 280 280 282 284 284 283 281 280 278 277 278 281
287 287 288 288 290 291 294 294 293 293 294 294 295 294 289 285 282 281 294 293 287 278 271 262 264 262 280 278 277 274 279 274 268 265 265 273 262 266 274 277 278 279 279 280 280 281 278 279 282 280 276 276 277 278
286 287 287 288 289 290 294 292 293 294 293 293 288 276 272 282 291 291 285 282 281 280 270 270 272 274 274 274 272 269 265 265 263 268 270 266 265 278 278 278 277 277 278 274 273 274 270 273 275 278 280 280 283 282
286 286 287 287 288 291 293 293 292 291 290 284 282 274 284 292 283 275 273 271 268 273 274 268 272 272 278 270 269 272 266 261 259 266 268 259 263 275 265 268 265 265 265 266 268 272 273 273 275 272 273 279 282 281
285 286 286 286 287 289 290 292 292 284 284 284 283 286 284 280 275 272 273 266 272 267 271 270 269 274 277 277 270 271 265 265 260 261 264 258 267 256 255 256 258 259 259 260 262 264 266 268 267 269 271 275 276 278
285 285 285 286 286 287 290 290 289 290 286 284 282 277 270 266 267 267 259 263 268 266 266 267 271 273 276 278 271 266 267 265 265 271 265 264 255 255 255 255 255 254 254 255 258 259 260 263 264 266 271 275 277 279
284 284 285 285 285 286 287 287 287 283 281 276 274 269 265 261 261 259 258 258 261 265 263 267 268 269 269 273 269 265 262 263 260 258 263 254 253 255 255 254 253 254 254 254 255 257 260 262 266 269 272 276 279 279
283 284 284 282 284 285 286 286 283 274 273 270 269 267 257 256 255 261 256 256 257 261 264 266 267 269 265 268 265 264 261 259 261 261 254 253 253 254 255 254 253 254 254 254 254 256 259 263 266 270 275 277 279 278
283 282 276 282 282 284 285 280 273 268 263 261 259 256 254 256 255 259 253 252 258 260 263 263 266 268 269 264 261 260 259 259 259 254 255 256 256 256 256 256 255 254 255 256 257 257 259 262 267 272 277 278 278 278
281 273 280 281 281 282 280 274 271 261 260 255 251 253 254 255 255 253 253 256 260 258 260 261 264 268 267 266 264 260 261 255 253 254 255 255 254 254 255 254 254 255 257 259 258 258 262 267 270 272 275 275 276 275
273 272 279 280 279 276 268 267 267 262 252 251 253 250 251 251 252 250 252 256 257 257 258 263 262 264 265 265 260 253 252 252 252 253 253 253 253 253 254 254 255 255 257 259 259 261 265 264 267 270 273 272 271 270
274 275 278 278 278 270 265 264 264 255 250 251 253 253 251 250 253 251 250 255 256 255 253 254 254 252 252 248 245 246 245 247 248 249 251 253 253 253 253 254 255 255 256 258 258 263 264 266 267 268 269 269 267 268
275 275 275 276 275 267 262 261 262 257 253 255 255 253 252 251 250 247 250 251 252 249 246 247 246 244 243 243 245 245 247 248 248 248 251 253 254 253 253 253 254 255 256 258 258 260 263 265 266 266 268 268 267 266
264 262 271 268 264 260 257 253 255 253 254 254 256 255 250 250 247 246 247 249 246 243 243 243 243 243 240 240 242 245 248 249 248 249 249 251 253 252 252 252 253 254 254 255 256 257 259 260 262 266 265 264 265 265
252 267 261 263 262 259 257 253 255 255 254 253 254 253 250 248 245 244 246 243 242 242 241 242 242 241 240 241 244 246 248 249 249 252 253 253 251 250 250 251 251 253 253 254 256 257 257 260 262 264 264 264 264 264
259 259 258 257 259 258 254 256 251 252 253 251 251 248 246 245 244 245 240 240 241 244 243 242 242 242 242 244 246 247 247 248 249 251 251 251 253 253 251 251 251 251 253 254 256 258 259 261 262 262 262 262 262 262
257 248 250 250 252 252 254 253 253 252 252 250 248 245 244 244 245 242 237 237 242 242 241 242 241 243 243 244 246 246 247 248 250 252 250 249 250 254 253 252 251 251 252 256 257 258 260 260 261 261 261 261 261 260
253 244 246 246 248 250 247 247 250 250 246 246 245 242 244 244 240 238 236 239 239 239 240 241 241 243 242 244 247 247 248 247 247 249 249 249 250 253 254 255 253 252 252 255 255 257 258 259 259 259 259 259 258 259
242 242 243 242 244 244 244 243 244 246 248 244 242 242 241 241 239 234 236 238 239 240 240 240 240 241 244 245 244 246 246 248 248 250 249 249 249 249 251 250 251 252 252 254 256 255 256 257 258 257 257 257 258 258
241 241 244 247 245 244 244 246 246 244 242 241 241 242 242 237 235 239 243 243 241 242 244 244 243 243 244 244 244 246 248 248 248 249 250 251 251 251 250 249 249 251 254 254 254 256 255 255 256 256 255 256 256 257
241 242 241 243 244 245 243 243 242 241 240 240 241 238 236 237 237 242 244 245 245 245 246 245 246 246 245 245 243 245 248 249 250 251 251 253 252 251 251 252 252 257 255 255 254 254 255 254 254 254 254 253 253 255
242 243 244 243 244 243 242 242 241 242 242 240 239 238 238 242 244 243 245 248 248 247 246 245 246 248 247 247 245 247 248 248 249 250 250 250 250 249 251 251 251 252 254 255 260 256 254 253 252 252 252 251 252 252
242 244 245 244 242 241 243 243 243 245 245 245 245 246 245 245 247 249 249 249 248 248 248 248 249 248 247 247 246 248 249 249 249 249 250 248 248 250 250 250 250 251 252 253 253 253 256 254 255 253 252 252 252 251
245 245 246 245 243 244 244 245 246 248 247 247 246 245 244 246 248 249 249 249 249 249 248 248 247 248 248 247 247 248 247 248 249 250 250 250 250 250 250 250 250 251 251 251 252 252 252 251 251 251 250 249 249 250
245 245 245 243 243 245 245 245 245 245 246 245 245 246 246 246 244 247 248 249 247 246 247 247 247 246 248 249 249 248 249 248 249 250 250 250 250 250 250 250 250 250 251 250 250 250 250 250 249 249 248 247 247 247
245 246 246 245 245 245 245 245 245 245 245 244 244 245 246 246 244 247 250 249 247 246 246 247 247 248 248 248 248 248 248 248 251 254 256 255 254 253 250 250 250 250 250 249 249 249 248 248 247 247 246 246 245 244
Wind_Speed
34 35 37 37 37 38 39 40 41 39 32 33 31 34 31 28 28 16 4 13 10 4 3 9 8 5 2 4 6 4 5 4 1 11 6 5 5 9 8 10 9 8 7 9 5 11 21 6 4 16 7 9 4 5
36 36 38 38 39 40 41 42 44 33 26 27 22 30 33 29 30 26 4 9 10 2 5 5 10 12 12 6 5 4 5 4 6 4 5 6 5 5 13 16 12 17 13 12 10 6 7 15 19 15 10 17 12 4
35 37 38 38 40 41 41 42 34 22 23 22 20 27 30 30 27 26 6 8 4 4 1 2 7 3 5 8 6 4 2 6 6 3 4 6 6 13 8 13 10 11 9 7 6 9 6 18 7 8 9 12 7 6
35 37 38 39 41 42 43 42 33 22 23 22 13 20 28 29 26 21 5 8 7 3 4 7 3 6 6 11 11 13 13 5 5 8 10 8 7 10 16 10 17 12 9 9 10 14 2 15 10 13 10 8 8 8
34 37 39 38 42 43 45 39 18 17 21 19 20 25 35 33 28 14 6 8 6 6 4 4 3 4 3 9 13 14 12 9 7 5 4 5 6 2 1 7 14 6 9 9 10 7 15 24 11 10 11 13 11 7
33 37 38 40 42 44 44 13 12 15 17 16 13 6 23 32 29 8 5 5 5 4 3 2 3 3 1 6 7 12 11 6 3 3 1 1 2 5 4 4 6 7 7 12 8 6 16 13 8 8 14 10 7 5
33 36 38 39 41 45 32 13 13 12 12 9 15 17 23 26 9 4 5 6 16 5 4 3 4 4 4 2 2 1 1 3 3 2 2 3 2 4 3 5 6 8 6 5 4 7 2 4 6 10 5 4 5 3
32 34 36 37 40 41 34 17 12 10 7 5 12 20 23 18 15 5 3 20 11 5 4 3 5 4 2 2 1 2 3 1 2 3 1 3 2 2 2 10 6 7 5 4 5 7 5 3 3 3 4 3 2 3
32 34 35 37 39 40 34 11 4 3 6 9 17 16 6 4 2 1 18 15 3 6 5 4 6 5 2 2 2 3 2 1 2 1 2 4 2 4 10 1 6 7 5 9 4 6 4 7 8 7 5 6 5 4
30 33 34 36 39 40 31 3 5 8 9 13 4 5 3 3 6 12 3 3 2 3 1 4 1 2 3 1 1 3 1 4 1 6 3 4 6 10 10 7 7 5 6 4 2 6 2 6 7 8 11 7 8 7
29 30 32 33 36 35 34 5 7 6 5 1 2 2 2 15 3 2 4 3 3 3 3 4 4 5 2 3 3 2 3 1 2 7 7 2 5 9 13 9 12 11 10 8 6 5 5 4 4 4 3 9 9 7
29 28 30 31 31 35 27 23 6 3 1 0 3 3 3 2 2 3 3 1 3 6 1 4 4 3 2 3 4 2 4 3 6 2 5 5 3 6 10 9 11 11 10 10 5 7 7 6 6 7 6 7 6 6
27 26 27 29 27 30 29 25 17 5 4 1 1 3 4 4 3 6 5 3 2 2 1 0 2 3 2 2 2 3 4 6 1 3 6 4 5 7 9 8 9 5 7 7 9 7 7 8 7 5 10 7 4 6
26 27 25 27 22 27 30 25 19 7 2 1 2 2 4 1 2 4 4 3 2 2 3 2 1 3 1 2 2 4 5 4 0 2 8 2 5 9 8 7 6 12 8 9 10 11 11 9 10 9 9 9 7 7
25 27 25 14 25 26 28 23 16 3 3 2 2 5 2 2 2 2 2 2 3 3 2 2 3 3 1 3 1 3 3 5 7 6 1 3 6 6 9 10 8 10 9 9 8 10 12 12 11 12 8 7 8 8
26 23 6 20 26 26 24 14 5 3 4 4 6 4 1 4 2 2 3 1 3 3 3 1 2 2 3 4 3 6 4 7 1 1 3 6 8 8 10 10 9 9 10 11 10 11 12 12 13 11 4 6 7 10
23 1 17 23 25 25 15 3 2 6 5 5 2 2 2 3 4 2 2 1 4 2 2 2 5 4 2 2 3 2 3 2 3 5 5 7 10 11 12 12 10 10 10 11 11 11 11 11 11 7 6 3 6 7
1 6 20 24 20 4 2 3 3 5 6 1 4 3 3 3 3 3 2 2 1 1 2 2 2 3 2 3 2 2 2 4 4 3 7 8 9 10 8 12 12 12 11 12 11 12 10 3 3 3 7 8 9 10
10 13 20 20 4 1 2 2 3 5 2 3 3 3 3 3 3 2 2 3 2 1 1 3 6 2 2 2 1 2 2 2 5 7 9 10 5 9 11 10 10 10 11 9 10 5 1 2 2 3 5 6 7 7
18 19 14 12 4 2 2 1 2 5 4 3 3 3 3 3 2 2 4 5 3 3 8 6 3 1 1 2 1 2 4 5 6 7 8 6 7 10 9 9 8 8 7 6 5 7 4 2 2 2 5 7 8 8
10 6 12 4 2 5 4 2 4 3 3 4 4 3 3 2 3 4 4 4 6 5 3 2 1 2 3 3 2 2 5 5 5 4 7 9 9 8 7 7 9 5 3 4 5 5 5 3 3 4 7 8 7 8
4 12 3 4 2 3 4 1 4 2 4 2 3 3 4 3 3 3 2 7 4 1 1 1 2 2 3 4 4 4 6 7 8 6 7 8 6 6 6 6 6 6 5 4 5 4 4 3 4 6 9 9 10 10
7 6 3 4 2 4 2 1 5 3 5 2 3 5 3 2 1 1 5 2 1 1 2 2 4 4 4 4 4 5 4 5 5 5 6 6 5 4 4 5 5 5 5 6 5 3 4 5 7 8 9 10 11 11
10 8 7 5 6 3 1 3 3 4 4 4 4 4 2 0 1 5 4 2 2 3 4 5 2 4 3 3 2 3 6 4 5 4 5 6 6 5 4 5 5 4 5 4 4 4 5 6 7 8 9 11 11 12
4 9 7 7 4 3 5 4 4 4 4 3 4 2 1 2 4 4 2 3 3 2 3 4 3 2 2 2 3 3 4 4 5 5 6 6 7 6 5 4 5 6 7 6 6 5 7 8 9 11 12 12 14 15
10 5 6 7 5 5 4 4 4 3 3 4 3 2 2 4 6 1 3 3 2 1 2 1 2 3 2 1 2 4 5 6 5 2 4 7 7 6 6 7 7 8 10 7 5 7 10 10 13 17 14 15 17 17
7 6 3 1 2 2 3 3 3 5 5 4 2 4 3 6 2 3 2 1 1 2 2 1 0 1 2 2 2 3 4 4 3 1 4 4 5 6 6 6 8 6 8 9 8 8 11 12 12 13 13 12 12 11
3 5 6 6 4 4 3 4 5 5 2 2 1 6 5 2 3 2 1 2 2 3 2 1 1 1 2 1 2 3 3 3 4 3 3 2 5 6 8 6 7 13 9 9 9 10 11 11 11 11 13 13 9 8
4 4 2 5 4 6 6 5 3 2 1 1 4 3 2 1 1 2 2 3 2 2 2 1 2 2 2 1 2 2 3 3 2 3 4 3 5 7 7 7 7 7 7 7 14 12 13 10 11 10 11 10 9 9
4 3 2 4 6 6 4 2 2 2 1 1 3 4 3 2 1 1 2 2 3 2 2 1 2 2 1 1 2 5 5 5 5 3 2 2 2 3 4 6 6 7 6 6 7 8 11 9 9 8 10 9 9 9
3 3 3 4 4 2 2 2 2 2 3 6 4 4 3 3 1 3 5 4 4 4 3 3 4 4 4 4 4 3 4 5 6 6 4 3 2 3 4 4 4 5 6 6 7 7 7 8 8 10 11 11 10 9
4 4 2 4 1 1 2 2 1 3 2 3 3 2 1 2 3 3 4 5 4 4 5 4 3 3 3 3 3 3 5 3 4 3 3 2 3 3 3 3 3 4 4 6 6 6 8 8 7 7 7 8 7 7
3 4 4 2 2 2 3 2 2 3 3 3 3 2 3 3 4 2 1 2 2 3 2 2 2 2 3 4 4 3 5 3 7 9 4 6 6 5 3 2 3 4 5 5 5 5 7 8 6 7 6 6 6 5
Wind_Direction
324 324 322 322 320 318 316 314 309 302 298 299 255 236 236 225 221 209 181 181 186 183 236 193 172 155 105 161 185 227 74 305 77 213 212 206 188 208 214 207 193 175 180 207 218 233 247 238 237 215 230 254 108 319
325 325 322 324 323 320 318 318 309 295 290 314 267 222 223 220 213 198 187 179 188 159 229 208 214 215 204 168 153 181 195 141 193 158 190 194 210 182 209 226 213 229 213 224 202 204 189 247 246 227 211 250 232 187
324 327 324 323 324 321 322 320 316 310 302 299 298 213 214 217 207 202 165 151 167 154 339 29 226 233 185 185 176 172 217 199 218 210 194 204 187 197 197 225 221 224 190 196 206 229 238 259 238 164 173 206 188 222
325 327 326 325 325 325 322 321 312 301 304 302 275 214 219 221 213 212 161 154 161 121 150 271 240 217 196 201 201 205 232 251 259 239 233 218 218 205 216 213 213 213 159 197 234 234 252 243 212 197 211 206 195 197
327 328 327 329 327 327 321 311 298 309 316 308 293 246 213 209 206 198 140 167 164 148 154 237 220 232 210 183 198 203 209 223 255 241 179 177 180 280 225 192 220 177 200 207 230 218 213 232 215 188 192 204 207 216
330 328 332 331 332 329 325 328 319 338 336 346 349 355 186 182 185 149 115 181 151 132 77 18 279 9 311 203 205 205 216 223 220 297 251 276 254 154 137 185 217 199 200 201 219 203 222 245 249 198 209 194 192 216
331 330 331 333 336 332 330 329 328 345 341 15 52 92 127 133 116 110 169 165 155 155 106 360 309 268 190 155 163 100 357 180 192 183 154 193 267 107 152 193 222 214 206 189 171 136 235 224 203 208 185 162 117 250
331 329 328 336 336 334 337 315 316 334 330 77 90 109 112 110 98 53 329 144 131 93 82 137 268 3 237 167 154 161 156 25 314 205 9 121 5 61 281 237 206 252 279 257 204 201 201 199 263 252 154 117 5 256
331 332 334 336 334 337 333 317 3 65 98 113 96 95 84 42 73 249 143 131 57 117 168 139 157 232 183 145 132 10 115 202 318 167 265 86 313 217 230 237 195 208 207 254 239 207 227 206 219 206 173 160 188 247
333 333 333 334 336 335 335 25 47 82 64 114 10 63 35 187 184 100 58 135 138 204 70 214 195 170 111 119 161 99 38 189 159 244 84 123 243 255 244 243 43 19 356 28 156 270 293 250 204 196 202 212 204 194
329 332 332 335 337 337 343 214 96 87 54 186 151 125 176 155 96 157 144 144 221 176 203 213 172 140 198 129 184 188 188 198 105 251 149 238 263 229 14 25 25 21 8 2 353 332 338 336 320 312 239 207 217 213
327 331 331 333 337 340 350 339 220 66 241 153 127 115 112 129 97 155 162 314 211 205 240 160 200 151 163 121 111 244 154 80 233 164 117 241 233 19 7 355 352 353 353 343 328 312 304 294 283 291 292 274 207 165
326 327 328 329 335 338 345 342 345 62 17 319 85 99 80 299 103 173 204 290 172 335 284 147 128 131 87 220 130 115 165 220 24 206 225 227 341 348 351 346 340 332 335 323 318 305 293 284 273 248 269 272 244 184
328 324 327 331 326 337 334 340 339 348 82 105 163 159 157 197 246 177 169 175 257 319 342 349 65 118 130 144 125 120 240 67 254 241 231 0 347 332 337 330 336 328 323 315 304 305 303 291 285 269 248 245 212 203
322 318 324 315 326 333 329 336 337 32 80 164 134 198 164 183 40 114 177 69 332 285 325 35 34 86 340 111 131 105 38 245 212 230 292 296 313 316 327 329 319 312 308 298 290 296 293 290 281 275 261 217 190 179
318 320 306 324 324 326 337 335 355 74 57 62 47 79 313 73 308 72 26 11 339 339 308 9 120 142 212 160 110 219 140 224 240 347 313 315 317 316 315 316 299 285 285 283 282 273 271 274 275 271 237 194 178 181
320 220 331 320 320 322 346 320 29 51 86 58 5 4 63 70 120 132 91 15 328 335 198 142 155 186 94 179 216 198 236 24 339 313 312 322 308 315 310 309 300 294 290 284 277 274 272 259 259 218 193 154 142 143
273 293 314 314 315 359 30 357 78 77 73 28 98 282 59 14 78 31 9 347 12 10 335 133 85 166 199 216 192 43 353 341 298 307 301 300 297 292 304 302 303 301 298 298 285 280 279 284 160 118 121 116 104 103
302 311 313 307 320 42 327 17 17 100 158 129 91 63 92 110 58 29 6 339 11 8 16 29 71 91 131 36 326 332 355 331 310 311 301 297 321 312 311 308 303 303 309 308 311 306 280 27 72 99 119 127 117 111
321 316 297 327 338 195 127 43 39 97 124 157 90 86 86 95 143 65 36 22 39 39 40 41 70 139 191 249 241 260 295 299 305 311 307 323 323 324 315 315 308 308 303 312 313 346 357 37 33 69 105 118 119 121
349 309 324 20 69 58 69 30 55 132 122 81 132 98 104 66 36 25 15 358 58 35 66 26 104 266 277 264 263 269 291 298 292 267 290 308 326 318 317 320 314 324 340 339 346 346 19 25 38 75 90 84 88 91
269 335 336 325 120 90 82 32 114 127 74 119 73 60 58 48 21 7 320 49 62 17 144 248 274 278 326 321 295 278 284 293 285 286 310 309 319 328 330 337 335 339 351 352 344 347 350 360 64 81 94 98 97 99
4 2 27 8 80 50 42 57 81 11 101 117 55 65 32 53 281 95 70 78 166 259 238 244 261 247 228 282 319 320 309 310 315 334 333 320 315 325 333 355 352 344 349 348 336 352 36 56 77 94 101 102 102 99
32 42 29 33 357 76 20 41 60 76 79 61 70 87 21 160 7 53 70 332 275 341 3 322 320 337 358 14 350 325 338 309 314 335 352 337 327 339 12 6 357 349 336 336 357 26 64 73 81 91 98 99 99 100
63 6 8 12 12 14 46 32 21 62 80 45 91 47 345 44 71 58 115 278 328 332 328 336 349 4 53 319 326 327 329 339 335 336 350 342 324 338 4 6 36 23 355 14 34 53 72 85 87 88 85 93 100 101
68 0 31 356 2 27 5 66 38 53 86 71 44 265 43 81 63 12 263 254 268 259 298 329 320 339 344 33 316 325 322 325 302 350 350 348 353 345 355 17 9 11 359 356 27 68 77 86 92 93 88 89 95 96
55 0 348 19 313 311 45 51 51 55 61 58 353 1 61 67 49 270 300 315 301 267 254 255 241 285 284 315 307 299 309 326 351 27 310 342 5 10 16 18 7 333 340 4 20 48 75 78 84 87 89 75 70 83
68 22 31 334 40 4 60 50 37 44 36 320 52 40 93 106 201 268 259 281 239 276 271 286 268 266 279 294 275 299 311 324 313 321 295 26 37 24 14 9 358 9 359 28 33 42 55 64 70 75 80 82 79 65
35 340 321 24 45 47 36 30 43 29 292 59 101 95 119 111 238 320 308 308 303 19 26 6 318 267 295 308 317 330 358 351 342 71 47 19 2 10 358 2 2 6 13 29 65 71 65 69 73 75 76 79 74 70
348 339 31 43 44 38 13 13 2 322 255 79 114 110 79 58 346 308 351 351 12 11 3 3 342 1 354 20 356 38 30 19 24 39 86 60 11 330 357 7 6 4 14 36 46 46 63 63 81 72 72 68 67 72
296 310 63 47 74 334 300 303 295 55 45 58 45 75 99 133 126 44 25 357 21 24 30 35 36 20 31 29 18 17 40 12 14 34 55 65 48 24 23 25 15 9 15 28 39 49 60 59 59 69 71 72 70 73
355 20 83 91 88 315 12 30 38 74 40 50 35 69 90 89 68 30 3 2 22 32 26 18 30 31 8 32 38 43 40 350 350 350 27 54 58 55 49 38 31 36 50 59 61 64 65 71 74 78 84 83 83 83
12 20 35 88 93 70 9 19 58 88 52 56 36 17 30 61 79 12 21 37 34 10 13 355 345 357 28 42 31 12 11 352 347 1 78 98 87 77 65 46 48 57 63 64 60 65 68 74 78 78 87 94 98 98